Regional Weather Roundup
Issued by NWS

Home | Current Version | Previous Version | Text Only | Print | Product List | Glossary On
Versions: 1 2 3 4 5 6 7 8 9 10 11 12 13 14 15 16 17 18 19 20 21 22 23 24 25 26 27 28 29 30 31 32 33 34 35 36 37 38 39 40 41 42 43 44 45 46 47 48 49 50
000
ASUS43 KLMK 241710
RWRKY
KENTUCKY REGIONAL WEATHER ROUNDUP
NATIONAL WEATHER SERVICE LOUISVILLE KY
100 PM EDT TUE MAY 24 2016

NOTE "FAIR" INDICATES FEW OR NO CLOUDS BELOW 12,000 FEET
WITH NO SIGNIFICANT WEATHER AND/OR OBSTRUCTIONS TO VISIBILITY.

KYZ001>023-026-027-061>063-070>075-241800-
WESTERN AND SOUTH CENTRAL KENTUCKY

CITY           SKY/WX    TMP DP  RH WIND       PRES   REMARKS
PADUCAH        CLOUDY    76  62  62 SE3       30.07S
HENDERSON      CLOUDY    77  57  50 SW8       30.09R
OWENSBORO      PTSUNNY   82  61  49 SW10      30.10S
HOPKINSVILLE   PTSUNNY   79  58  48 S7        30.11S
BOWLING GREEN  MOSUNNY   82  54  37 SW9       30.12S
GLASGOW        SUNNY     80  51  37 SW5       30.14R
$$

KYZ024-025-028>034-038-045-046-053-241800-
NORTH CENTRAL KENTUCKY

CITY           SKY/WX    TMP DP  RH WIND       PRES   REMARKS
LOUISVILLE/SDF MOSUNNY   80  48  32 S10       30.11F
LOUISVILLE/LOU SUNNY     78  48  34 VRB3      30.11F
FORT KNOX      SUNNY     79  53  40 VRB5      30.10F
$$

KYZ035>037-039>044-047>052-055>060-089>105-241800-
NORTHEAST KENTUCKY

CITY           SKY/WX    TMP DP  RH WIND       PRES   REMARKS
LEXINGTON      SUNNY     77  49  37 SW9       30.14F
COVINGTON      PTSUNNY   76  49  38 SW7       30.12F
FRANKFORT      SUNNY     78  44  29 S7        30.12S
$$

KYZ054-064>069-076>088-106>120-241800-
SOUTHEAST KENTUCKY

CITY           SKY/WX    TMP DP  RH WIND       PRES   REMARKS
JACKSON        SUNNY     75  51  43 VRB3      30.16F
LONDON         SUNNY     75  46  35 VRB3      30.16S
SOMERSET       SUNNY     73  43  33 W7        30.16F
MIDDLESBORO    SUNNY     77  54  44 SE6       30.16F
MONTICELLO     SUNNY     78  49  35 N13G20    30.17S
$$




USA.gov is the U.S. government's official web portal to all federal, state and local government web resources and services.